THT101 NTAA-NZAA

Flight info

Callsign THT101
Flight time N/A
Altitude 34000
Route MAITO G594 KRILL/N0493F360 G594 MEXIP/N0485F380 G594 AKLOM
Aircraft A343/H-SDE2E3FGHIJ4J5M1RWXY/LB1D1

Departure

Time 2026-05-07 23:23
Airport Fa'a'ā International Airport (NTAA)

Arrival

Time N/A
Airport Auckland International Airport (NZAA)
Time Latitude Longitude Altitude Speed Heading
2026-05-07 23:06 -17.55848 -149.61015 21 ft 0 kts 146°
2026-05-07 23:11 -17.55832 -149.61026 22 ft 4 kts 146°
2026-05-07 23:11 -17.55812 -149.61040 24 ft 4 kts 142°
2026-05-07 23:12 -17.55796 -149.61059 23 ft 4 kts 94°
2026-05-07 23:12 -17.55804 -149.61081 23 ft 4 kts 44°
2026-05-07 23:12 -17.55824 -149.61100 22 ft 4 kts 43°
2026-05-07 23:12 -17.55834 -149.61110 23 ft 0 kts 55°
2026-05-07 23:17 -17.55829 -149.61103 20 ft 6 kts 55°
2026-05-07 23:17 -17.55776 -149.61073 19 ft 9 kts 352°
2026-05-07 23:18 -17.55704 -149.61122 17 ft 17 kts 322°
2026-05-07 23:18 -17.55639 -149.61117 17 ft 7 kts 40°
2026-05-07 23:18 -17.55595 -149.61062 17 ft 16 kts 54°
2026-05-07 23:18 -17.55506 -149.60931 19 ft 27 kts 54°
2026-05-07 23:19 -17.55381 -149.60749 18 ft 32 kts 54°
2026-05-07 23:19 -17.55251 -149.60559 18 ft 32 kts 53°
2026-05-07 23:19 -17.55120 -149.60370 16 ft 32 kts 54°
2026-05-07 23:19 -17.54990 -149.60183 15 ft 32 kts 54°
2026-05-07 23:20 -17.54864 -149.59999 17 ft 31 kts 54°
2026-05-07 23:20 -17.54740 -149.59819 17 ft 30 kts 54°
2026-05-07 23:20 -17.54620 -149.59646 16 ft 30 kts 54°
2026-05-07 23:20 -17.54531 -149.59513 16 ft 9 kts 59°
2026-05-07 23:21 -17.54516 -149.59445 15 ft 11 kts 84°
2026-05-07 23:21 -17.54494 -149.59410 15 ft 4 kts 14°
2026-05-07 23:21 -17.54471 -149.59431 15 ft 3 kts 278°
2026-05-07 23:21 -17.54483 -149.59448 15 ft 0 kts 233°
2026-05-07 23:22 -17.54533 -149.59518 16 ft 37 kts 233°
2026-05-07 23:22 -17.54788 -149.59889 16 ft 88 kts 234°
2026-05-07 23:23 -17.55238 -149.60541 19 ft 131 kts 234°
2026-05-07 23:23 -17.55839 -149.61418 87 ft 160 kts 233°
2026-05-07 23:23 -17.56475 -149.62361 616 ft 161 kts 234°
2026-05-07 23:23 -17.57145 -149.63375 863 ft 178 kts 235°
2026-05-07 23:24 -17.57867 -149.64500 1185 ft 192 kts 234°
2026-05-07 23:24 -17.58612 -149.65703 1587 ft 200 kts 234°
2026-05-07 23:24 -17.59324 -149.67001 1813 ft 216 kts 243°
2026-05-07 23:24 -17.59937 -149.68507 2054 ft 235 kts 247°
2026-05-07 23:25 -17.60511 -149.70157 2319 ft 252 kts 249°
2026-05-07 23:25 -17.61106 -149.71926 2679 ft 262 kts 249°
2026-05-07 23:25 -17.61738 -149.73755 3114 ft 271 kts 248°
2026-05-07 23:25 -17.62415 -149.75638 3549 ft 280 kts 248°
2026-05-07 23:26 -17.63123 -149.77538 4200 ft 280 kts 248°
2026-05-07 23:26 -17.63847 -149.79445 5031 ft 283 kts 247°
2026-05-07 23:26 -17.64585 -149.81368 5796 ft 285 kts 247°
2026-05-07 23:26 -17.65329 -149.83299 6625 ft 286 kts 247°
2026-05-07 23:27 -17.66832 -149.87206 7991 ft 296 kts 247°
2026-05-07 23:27 -17.67599 -149.89205 8762 ft 296 kts 246°
2026-05-07 23:27 -17.68370 -149.91216 9524 ft 299 kts 246°
2026-05-07 23:28 -17.69150 -149.93253 10184 ft 303 kts 247°
2026-05-07 23:28 -17.69951 -149.95345 10596 ft 317 kts 246°
2026-05-07 23:28 -17.70794 -149.97540 10903 ft 332 kts 247°
2026-05-07 23:28 -17.71675 -149.99838 11217 ft 346 kts 247°
2026-05-07 23:29 -17.72588 -150.02231 11494 ft 360 kts 246°
2026-05-07 23:29 -17.73527 -150.04693 11981 ft 366 kts 246°
2026-05-07 23:29 -17.74478 -150.07191 12522 ft 370 kts 246°
2026-05-07 23:29 -17.75425 -150.09674 13100 ft 373 kts 246°
2026-05-07 23:30 -17.76388 -150.12205 13793 ft 371 kts 246°
2026-05-07 23:30 -17.77332 -150.14691 14672 ft 362 kts 246°
2026-05-07 23:30 -17.78220 -150.17029 15400 ft 358 kts 247°
2026-05-07 23:30 -17.79171 -150.19530 16037 ft 359 kts 245°
2026-05-07 23:31 -17.80087 -150.21936 16674 ft 359 kts 246°
2026-05-07 23:31 -17.81016 -150.24369 17210 ft 362 kts 246°
2026-05-07 23:31 -17.81955 -150.26831 17787 ft 365 kts 246°
2026-05-07 23:31 -17.82899 -150.29312 18331 ft 368 kts 246°
2026-05-07 23:32 -17.83834 -150.31771 18857 ft 369 kts 247°
2026-05-07 23:32 -17.84785 -150.34278 19360 ft 370 kts 246°
2026-05-07 23:32 -17.85738 -150.36788 19876 ft 372 kts 246°
2026-05-07 23:32 -17.86701 -150.39327 20292 ft 376 kts 246°
2026-05-07 23:33 -17.87674 -150.41888 20698 ft 381 kts 247°
2026-05-07 23:33 -17.88656 -150.44481 21201 ft 381 kts 247°
2026-05-07 23:33 -17.89637 -150.47070 21713 ft 382 kts 247°
2026-05-07 23:33 -17.90619 -150.49663 22185 ft 384 kts 247°
2026-05-07 23:34 -17.91610 -150.52281 22599 ft 388 kts 248°
2026-05-07 23:34 -17.92597 -150.54886 23030 ft 390 kts 248°
2026-05-07 23:34 -17.93606 -150.57552 23354 ft 395 kts 248°
2026-05-07 23:34 -17.94619 -150.60231 23852 ft 395 kts 248°
2026-05-07 23:35 -17.95629 -150.62906 24346 ft 393 kts 248°
2026-05-07 23:35 -17.96640 -150.65582 24644 ft 398 kts 248°
2026-05-07 23:35 -17.97663 -150.68291 24959 ft 401 kts 248°
2026-05-07 23:35 -17.98694 -150.71024 25242 ft 404 kts 249°
2026-05-07 23:36 -17.99730 -150.73769 25708 ft 403 kts 249°
2026-05-07 23:36 -18.00761 -150.76502 26156 ft 402 kts 249°
2026-05-07 23:36 -18.01778 -150.79201 26468 ft 405 kts 249°
2026-05-07 23:36 -18.02819 -150.81967 26712 ft 410 kts 249°
2026-05-07 23:37 -18.03874 -150.84771 26922 ft 415 kts 249°
2026-05-07 23:37 -18.04932 -150.87583 27364 ft 414 kts 250°
2026-05-07 23:37 -18.05987 -150.90391 27767 ft 414 kts 250°
2026-05-07 23:37 -18.07047 -150.93212 28019 ft 418 kts 250°
2026-05-07 23:38 -18.08116 -150.96059 28306 ft 420 kts 249°
2026-05-07 23:38 -18.09196 -150.98932 28549 ft 423 kts 250°
2026-05-07 23:38 -18.10275 -151.01806 28932 ft 423 kts 250°
2026-05-07 23:38 -18.11337 -151.04635 29405 ft 420 kts 250°
2026-05-07 23:39 -18.12413 -151.07503 29643 ft 423 kts 250°
2026-05-07 23:39 -18.13493 -151.10388 29941 ft 425 kts 249°
2026-05-07 23:39 -18.14576 -151.13278 30294 ft 424 kts 249°
2026-05-07 23:39 -18.15654 -151.16156 30636 ft 422 kts 250°
2026-05-07 23:40 -18.16721 -151.19007 31063 ft 418 kts 249°
2026-05-07 23:40 -18.17790 -151.21865 31295 ft 420 kts 249°
2026-05-07 23:40 -18.18860 -151.24729 31454 ft 423 kts 250°
2026-05-07 23:40 -18.19916 -151.27554 31841 ft 419 kts 249°
2026-05-07 23:41 -18.20980 -151.30403 32216 ft 416 kts 250°
2026-05-07 23:41 -18.22035 -151.33229 32517 ft 416 kts 250°
2026-05-07 23:41 -18.23094 -151.36067 32695 ft 418 kts 249°
2026-05-07 23:41 -18.24159 -151.38925 32841 ft 420 kts 250°
2026-05-07 23:42 -18.25219 -151.41771 33205 ft 417 kts 249°
2026-05-07 23:42 -18.26273 -151.44601 33619 ft 413 kts 250°
2026-05-07 23:42 -18.27321 -151.47417 33797 ft 414 kts 250°
2026-05-07 23:42 -18.28371 -151.50239 33969 ft 415 kts 250°
2026-05-07 23:43 -18.30480 -151.55915 34031 ft 425 kts 249°
2026-05-07 23:43 -18.32690 -151.61771 34029 ft 436 kts 249°
2026-05-07 23:44 -18.34982 -151.67780 34029 ft 447 kts 249°
2026-05-07 23:44 -18.37317 -151.73923 34028 ft 458 kts 249°
2026-05-07 23:45 -18.39677 -151.80153 34028 ft 462 kts 249°
2026-05-07 23:45 -18.42039 -151.86400 34024 ft 458 kts 249°
2026-05-07 23:46 -18.44394 -151.92638 34031 ft 459 kts 249°
2026-05-07 23:46 -18.46752 -151.98890 34025 ft 459 kts 249°
2026-05-07 23:47 -18.49107 -152.05142 34024 ft 460 kts 249°
2026-05-07 23:47 -18.51446 -152.11358 34026 ft 460 kts 250°
2026-05-07 23:48 -18.53801 -152.17625 34022 ft 460 kts 249°
2026-05-07 23:48 -18.56152 -152.23886 34024 ft 460 kts 250°
2026-05-07 23:49 -18.58499 -152.30144 34026 ft 459 kts 249°
2026-05-07 23:49 -18.60837 -152.36389 34028 ft 461 kts 249°
2026-05-07 23:50 -18.63179 -152.42649 34022 ft 458 kts 249°
2026-05-07 23:50 -18.65521 -152.48916 34023 ft 460 kts 249°
2026-05-07 23:51 -18.67860 -152.55182 34022 ft 459 kts 249°
2026-05-07 23:51 -18.70200 -152.61460 34026 ft 460 kts 249°
2026-05-07 23:52 -18.72519 -152.67687 34031 ft 459 kts 249°
2026-05-07 23:52 -18.74853 -152.73963 34030 ft 460 kts 249°
2026-05-07 23:53 -18.77182 -152.80232 34027 ft 458 kts 249°
2026-05-07 23:53 -18.79512 -152.86510 34030 ft 461 kts 249°
2026-05-07 23:54 -18.81829 -152.92763 34023 ft 460 kts 249°
2026-05-07 23:54 -18.84153 -152.99040 34027 ft 461 kts 249°
2026-05-07 23:55 -18.86487 -153.05351 34027 ft 460 kts 250°
2026-05-07 23:55 -18.88810 -153.11643 34025 ft 460 kts 249°
2026-05-07 23:56 -18.91121 -153.17908 34031 ft 461 kts 250°
2026-05-07 23:56 -18.93440 -153.24202 34030 ft 461 kts 250°
2026-05-07 23:57 -18.95767 -153.30524 34030 ft 462 kts 250°
2026-05-07 23:57 -18.98089 -153.36841 34028 ft 461 kts 249°
2026-05-07 23:58 -19.00409 -153.43160 34031 ft 462 kts 250°
2026-05-07 23:58 -19.02713 -153.49443 34027 ft 461 kts 250°
2026-05-07 23:59 -19.05033 -153.55780 34028 ft 463 kts 250°
2026-05-07 23:59 -19.07351 -153.62116 34031 ft 462 kts 250°
2026-05-08 00:00 -19.09671 -153.68467 34031 ft 463 kts 250°
2026-05-08 00:00 -19.11597 -153.73743 34030 ft 462 kts 250°
2026-05-08 00:01 -19.14285 -153.81117 34035 ft 464 kts 250°
2026-05-08 00:01 -19.16599 -153.87473 34029 ft 462 kts 250°
2026-05-08 00:02 -19.18518 -153.92752 34035 ft 463 kts 250°
2026-05-08 00:02 -19.20828 -153.99112 34034 ft 462 kts 250°
2026-05-08 00:03 -19.23503 -154.06485 34034 ft 463 kts 250°
2026-05-08 00:03 -19.25813 -154.12863 34033 ft 464 kts 251°
2026-05-08 00:04 -19.27733 -154.18170 34033 ft 465 kts 250°
2026-05-08 00:04 -19.30045 -154.24569 34030 ft 465 kts 251°
2026-05-08 00:05 -19.32350 -154.30954 34033 ft 464 kts 251°
2026-05-08 00:05 -19.34657 -154.37355 34041 ft 465 kts 251°
2026-05-08 00:06 -19.36944 -154.43704 34038 ft 464 kts 251°
2026-05-08 00:06 -19.39241 -154.50092 34035 ft 465 kts 251°
2026-05-08 00:07 -19.41538 -154.56486 34037 ft 464 kts 251°
2026-05-08 00:07 -19.43831 -154.62879 34035 ft 465 kts 251°
2026-05-08 00:08 -19.46107 -154.69231 34025 ft 464 kts 251°
2026-05-08 00:08 -19.48394 -154.75625 34041 ft 465 kts 251°
2026-05-08 00:09 -19.50681 -154.82023 34036 ft 464 kts 251°
2026-05-08 00:09 -19.52967 -154.88428 34036 ft 465 kts 251°
2026-05-08 00:10 -19.55235 -154.94790 34038 ft 464 kts 251°
2026-05-08 00:10 -19.57512 -155.01186 34039 ft 464 kts 251°
2026-05-08 00:11 -19.59789 -155.07591 34018 ft 464 kts 251°
2026-05-08 00:11 -19.62057 -155.13978 34017 ft 463 kts 251°
2026-05-08 00:12 -19.64314 -155.20342 34032 ft 464 kts 251°
2026-05-08 00:12 -19.66577 -155.26730 34017 ft 463 kts 251°
2026-05-08 00:13 -19.68844 -155.33138 34028 ft 464 kts 251°
2026-05-08 00:13 -19.71107 -155.39545 34039 ft 464 kts 251°
2026-05-08 00:14 -19.73357 -155.45923 34038 ft 465 kts 251°
2026-05-08 00:14 -19.75617 -155.52337 34039 ft 464 kts 251°
2026-05-08 00:15 -19.77879 -155.58762 34024 ft 465 kts 251°
2026-05-08 00:15 -19.80136 -155.65184 34023 ft 464 kts 251°
2026-05-08 00:16 -19.82395 -155.71620 34039 ft 465 kts 252°
2026-05-08 00:16 -19.84638 -155.78020 34026 ft 465 kts 251°
2026-05-08 00:17 -19.86891 -155.84455 34026 ft 466 kts 252°
2026-05-08 00:17 -19.89146 -155.90906 34026 ft 465 kts 251°
2026-05-08 00:18 -19.91396 -155.97347 34030 ft 466 kts 251°
2026-05-08 00:18 -19.93636 -156.03772 34041 ft 467 kts 252°
2026-05-08 00:19 -19.95888 -156.10239 34029 ft 466 kts 251°
2026-05-08 00:19 -19.98138 -156.16708 34026 ft 467 kts 252°
2026-05-08 00:20 -20.00388 -156.23185 34026 ft 466 kts 251°
2026-05-08 00:20 -20.02618 -156.29616 34030 ft 468 kts 251°
2026-05-08 00:21 -20.04866 -156.36103 34028 ft 467 kts 252°
2026-05-08 00:21 -20.07113 -156.42601 34031 ft 468 kts 251°
2026-05-08 00:22 -20.09356 -156.49090 34026 ft 467 kts 251°
2026-05-08 00:22 -20.11582 -156.55541 34029 ft 468 kts 252°
2026-05-08 00:23 -20.13822 -156.62042 34027 ft 467 kts 252°
2026-05-08 00:23 -20.16057 -156.68541 34032 ft 469 kts 251°
2026-05-08 00:24 -20.18295 -156.75053 34028 ft 468 kts 252°
2026-05-08 00:24 -20.20523 -156.81544 34028 ft 467 kts 251°
2026-05-08 00:25 -20.22737 -156.88006 34029 ft 467 kts 252°
2026-05-08 00:25 -20.24964 -156.94512 34027 ft 468 kts 252°
2026-05-08 00:26 -20.27194 -157.01042 34239 ft 470 kts 252°
2026-05-08 00:26 -20.28287 -157.04316 34488 ft 469 kts 253°
2026-05-08 00:26 -20.29342 -157.07552 34726 ft 468 kts 253°
2026-05-08 00:27 -20.30401 -157.10838 34939 ft 468 kts 253°
2026-05-08 00:27 -20.31455 -157.14112 35137 ft 467 kts 253°
2026-05-08 00:27 -20.32512 -157.17390 35376 ft 466 kts 253°
2026-05-08 00:27 -20.33567 -157.20652 35591 ft 466 kts 253°
2026-05-08 00:28 -20.34589 -157.23803 35807 ft 465 kts 253°
2026-05-08 00:28 -20.35666 -157.27124 36003 ft 464 kts 253°
2026-05-08 00:28 -20.37752 -157.33560 36048 ft 465 kts 253°
2026-05-08 00:29 -20.39849 -157.40031 36031 ft 463 kts 253°
2026-05-08 00:29 -20.41946 -157.46516 36030 ft 463 kts 253°
2026-05-08 00:30 -20.44034 -157.52984 36029 ft 463 kts 253°
2026-05-08 00:30 -20.46121 -157.59458 36030 ft 462 kts 253°
2026-05-08 00:31 -20.48186 -157.65873 36027 ft 462 kts 253°
2026-05-08 00:31 -20.50262 -157.72331 36031 ft 462 kts 253°
2026-05-08 00:32 -20.52338 -157.78795 36028 ft 462 kts 253°
2026-05-08 00:32 -20.54410 -157.85259 36028 ft 462 kts 253°
2026-05-08 00:33 -20.56477 -157.91715 36028 ft 462 kts 253°
2026-05-08 00:33 -20.58529 -157.98136 36028 ft 462 kts 253°
2026-05-08 00:34 -20.60596 -158.04611 36033 ft 462 kts 253°
2026-05-08 00:34 -20.62656 -158.11072 36028 ft 462 kts 253°
2026-05-08 00:35 -20.64722 -158.17565 36029 ft 462 kts 253°
2026-05-08 00:35 -20.66773 -158.24016 36028 ft 462 kts 254°
2026-05-08 00:36 -20.68835 -158.30512 36025 ft 462 kts 254°
2026-05-08 00:36 -20.70893 -158.37006 36034 ft 462 kts 253°
2026-05-08 00:37 -20.72950 -158.43507 36018 ft 462 kts 254°
2026-05-08 00:38 -20.76018 -158.53222 36036 ft 462 kts 254°
2026-05-08 00:38 -20.78068 -158.59721 36030 ft 461 kts 254°
2026-05-08 00:39 -20.80139 -158.66209 36018 ft 462 kts 253°
2026-05-08 00:39 -20.82401 -158.72639 36018 ft 462 kts 251°
2026-05-08 00:40 -20.84698 -158.79043 36017 ft 462 kts 252°
2026-05-08 00:40 -20.86955 -158.85427 36015 ft 462 kts 252°
2026-05-08 00:41 -20.89204 -158.91860 36035 ft 462 kts 252°
2026-05-08 00:41 -20.91450 -158.98307 36020 ft 463 kts 252°
2026-05-08 00:42 -20.93697 -159.04762 36022 ft 463 kts 252°
2026-05-08 00:42 -20.95924 -159.11167 36037 ft 463 kts 252°
2026-05-08 00:43 -20.98162 -159.17612 36019 ft 463 kts 252°
2026-05-08 00:43 -21.00403 -159.24074 36023 ft 463 kts 252°
2026-05-08 00:44 -21.02639 -159.30529 36020 ft 463 kts 252°
2026-05-08 00:44 -21.04862 -159.36957 36022 ft 463 kts 252°
2026-05-08 00:45 -21.07094 -159.43420 36023 ft 463 kts 252°
2026-05-08 00:45 -21.09325 -159.49890 36022 ft 463 kts 252°
2026-05-08 00:46 -21.11552 -159.56356 36034 ft 463 kts 252°
2026-05-08 00:46 -21.13780 -159.62833 36039 ft 463 kts 252°
2026-05-08 00:47 -21.15987 -159.69260 36044 ft 463 kts 252°
2026-05-08 00:47 -21.18205 -159.75729 36048 ft 463 kts 252°
2026-05-08 00:48 -21.20979 -159.81968 36052 ft 469 kts 239°
2026-05-08 00:48 -21.25034 -159.87310 36049 ft 472 kts 232°
2026-05-08 00:49 -21.29472 -159.92563 36043 ft 474 kts 231°
2026-05-08 00:49 -21.33917 -159.97759 36034 ft 474 kts 231°
2026-05-08 00:50 -21.38352 -160.02987 36031 ft 474 kts 231°
2026-05-08 00:50 -21.42762 -160.08220 36020 ft 473 kts 231°
2026-05-08 00:51 -21.47163 -160.13455 36022 ft 473 kts 231°
2026-05-08 00:51 -21.51548 -160.18676 36019 ft 473 kts 231°
2026-05-08 00:52 -21.55952 -160.23922 36023 ft 474 kts 231°
2026-05-08 00:52 -21.60362 -160.29180 36022 ft 474 kts 232°
2026-05-08 00:53 -21.64775 -160.34447 36020 ft 474 kts 232°
2026-05-08 00:53 -21.69157 -160.39682 36021 ft 474 kts 232°
2026-05-08 00:54 -21.73568 -160.44958 36021 ft 474 kts 232°
2026-05-08 00:54 -21.77975 -160.50233 36021 ft 474 kts 232°
2026-05-08 00:55 -21.82376 -160.55506 36024 ft 474 kts 232°
2026-05-08 00:55 -21.86754 -160.60757 36020 ft 471 kts 232°
2026-05-08 00:56 -21.91084 -160.65956 36020 ft 471 kts 232°
2026-05-08 00:56 -21.95454 -160.71209 36023 ft 472 kts 232°
2026-05-08 00:57 -21.99797 -160.76470 36022 ft 472 kts 233°
2026-05-08 00:57 -22.04074 -160.81852 36020 ft 472 kts 233°
2026-05-08 00:58 -22.08298 -160.87212 36017 ft 472 kts 233°
2026-05-08 00:58 -22.12565 -160.92604 36020 ft 473 kts 233°
2026-05-08 00:59 -22.16845 -160.98001 36020 ft 474 kts 233°
2026-05-08 00:59 -22.21130 -161.03404 36020 ft 474 kts 233°
2026-05-08 01:00 -22.25386 -161.08776 36020 ft 474 kts 233°
2026-05-08 01:00 -22.29663 -161.14182 36022 ft 474 kts 233°
2026-05-08 01:01 -22.33951 -161.19609 36028 ft 477 kts 234°
2026-05-08 01:01 -22.38262 -161.25070 36020 ft 478 kts 234°
2026-05-08 01:02 -22.42582 -161.30546 36023 ft 478 kts 234°
2026-05-08 01:02 -22.46862 -161.35977 36022 ft 478 kts 234°
2026-05-08 01:03 -22.51166 -161.41445 36023 ft 478 kts 234°
2026-05-08 01:03 -22.55472 -161.46922 36017 ft 478 kts 234°
2026-05-08 01:04 -22.59745 -161.52362 36018 ft 478 kts 234°
2026-05-08 01:04 -22.64044 -161.57842 36016 ft 478 kts 234°
2026-05-08 01:05 -22.68341 -161.63324 36019 ft 478 kts 235°
2026-05-08 01:05 -22.72655 -161.68837 36021 ft 480 kts 235°
2026-05-08 01:06 -22.76973 -161.74359 36020 ft 481 kts 235°
2026-05-08 01:06 -22.81263 -161.79849 36021 ft 480 kts 235°
2026-05-08 01:07 -22.85579 -161.85378 36021 ft 480 kts 235°
2026-05-08 01:07 -22.89891 -161.90910 36021 ft 480 kts 235°
2026-05-08 01:08 -22.94213 -161.96461 36020 ft 483 kts 235°
2026-05-08 01:08 -22.98557 -162.02047 36020 ft 484 kts 235°
2026-05-08 01:09 -23.02863 -162.07587 36033 ft 484 kts 235°
2026-05-08 01:09 -23.07210 -162.13186 36015 ft 485 kts 235°
2026-05-08 01:10 -23.11558 -162.18795 36015 ft 485 kts 235°
2026-05-08 01:10 -23.15877 -162.24371 36015 ft 485 kts 235°
2026-05-08 01:11 -23.20221 -162.29984 36013 ft 486 kts 236°
2026-05-08 01:11 -23.24568 -162.35610 36009 ft 486 kts 236°
2026-05-08 01:12 -23.28908 -162.41234 36006 ft 486 kts 236°
2026-05-08 01:12 -23.33253 -162.46869 36004 ft 486 kts 236°
2026-05-08 01:13 -23.37557 -162.52458 36002 ft 486 kts 236°
2026-05-08 01:13 -23.41899 -162.58101 35998 ft 485 kts 236°
2026-05-08 01:14 -23.46226 -162.63730 36002 ft 486 kts 237°
2026-05-08 01:14 -23.50571 -162.69393 35993 ft 487 kts 237°
2026-05-08 01:15 -23.54914 -162.75058 35990 ft 487 kts 237°
2026-05-08 01:15 -23.59224 -162.80686 35990 ft 487 kts 237°
2026-05-08 01:16 -23.63564 -162.86358 35990 ft 487 kts 237°
2026-05-08 01:16 -23.67895 -162.92027 35987 ft 487 kts 237°
2026-05-08 01:17 -23.72229 -162.97705 35987 ft 487 kts 237°
2026-05-08 01:17 -23.76529 -163.03343 35982 ft 486 kts 237°
2026-05-08 01:18 -23.80845 -163.09011 35980 ft 486 kts 237°
2026-05-08 01:18 -23.85161 -163.14687 35983 ft 486 kts 237°
2026-05-08 01:19 -23.89473 -163.20362 35982 ft 486 kts 237°
2026-05-08 01:19 -23.93758 -163.26008 35977 ft 486 kts 237°
2026-05-08 01:20 -23.98067 -163.31692 35987 ft 486 kts 237°
2026-05-08 01:20 -24.02383 -163.37393 35977 ft 487 kts 237°
2026-05-08 01:21 -24.06696 -163.43097 35974 ft 487 kts 237°
2026-05-08 01:21 -24.11015 -163.48815 35975 ft 487 kts 237°
2026-05-08 01:22 -24.15299 -163.54492 35972 ft 488 kts 237°
2026-05-08 01:22 -24.19618 -163.60224 35973 ft 488 kts 237°
2026-05-08 01:23 -24.23936 -163.65959 35988 ft 488 kts 238°
2026-05-08 01:23 -24.28231 -163.71670 35973 ft 489 kts 238°
2026-05-08 01:24 -24.32554 -163.77428 35972 ft 489 kts 238°
2026-05-08 01:24 -24.36876 -163.83191 35966 ft 489 kts 238°
2026-05-08 01:25 -24.41194 -163.88954 35967 ft 489 kts 238°
2026-05-08 01:25 -24.45482 -163.94683 35963 ft 489 kts 238°
2026-05-08 01:26 -24.49794 -164.00451 35989 ft 489 kts 238°
2026-05-08 01:26 -24.54108 -164.06226 35967 ft 489 kts 239°
2026-05-08 01:27 -24.58414 -164.12004 35963 ft 489 kts 239°
2026-05-08 01:27 -24.62693 -164.17751 35958 ft 489 kts 239°
2026-05-08 01:28 -24.66997 -164.23537 35958 ft 489 kts 239°
2026-05-08 01:28 -24.71298 -164.29326 35958 ft 489 kts 239°
2026-05-08 01:29 -24.75596 -164.35118 35953 ft 489 kts 239°
2026-05-08 01:29 -24.79860 -164.40870 35954 ft 488 kts 239°
2026-05-08 01:30 -24.84147 -164.46660 35957 ft 487 kts 240°
2026-05-08 01:30 -24.88419 -164.52438 35951 ft 487 kts 240°
2026-05-08 01:31 -24.92692 -164.58225 35949 ft 487 kts 240°
2026-05-08 01:31 -24.96934 -164.63977 35946 ft 487 kts 240°
2026-05-08 01:32 -25.01194 -164.69760 35943 ft 486 kts 240°
2026-05-08 01:32 -25.05460 -164.75558 35945 ft 487 kts 240°
2026-05-08 01:33 -25.09721 -164.81356 35935 ft 486 kts 240°
2026-05-08 01:33 -25.13979 -164.87157 35936 ft 486 kts 240°
2026-05-08 01:34 -25.18206 -164.92923 35946 ft 486 kts 240°
2026-05-08 01:34 -25.22459 -164.98731 35938 ft 486 kts 240°
2026-05-08 01:35 -25.26714 -165.04532 35936 ft 486 kts 240°
2026-05-08 01:35 -25.30990 -165.10321 35939 ft 486 kts 240°
2026-05-08 01:36 -25.35231 -165.16068 35934 ft 486 kts 240°
2026-05-08 01:36 -25.39494 -165.21860 35929 ft 485 kts 240°
2026-05-08 01:37 -25.43750 -165.27655 35921 ft 485 kts 240°
2026-05-08 01:37 -25.48003 -165.33452 35925 ft 485 kts 240°
2026-05-08 01:38 -25.52227 -165.39217 35940 ft 485 kts 240°
2026-05-08 01:38 -25.56473 -165.45017 35930 ft 484 kts 240°
2026-05-08 01:39 -25.60708 -165.50810 35920 ft 483 kts 241°
2026-05-08 01:39 -25.64931 -165.56596 35922 ft 483 kts 241°
2026-05-08 01:40 -25.69122 -165.62345 35915 ft 483 kts 241°
2026-05-08 01:40 -25.73342 -165.68142 35913 ft 483 kts 241°
2026-05-08 01:41 -25.77559 -165.73940 35919 ft 483 kts 241°
2026-05-08 01:41 -25.81776 -165.79745 35926 ft 483 kts 241°
2026-05-08 01:42 -25.85957 -165.85507 35911 ft 482 kts 241°
2026-05-08 01:42 -25.90162 -165.91311 35911 ft 483 kts 241°
2026-05-08 01:43 -25.94372 -165.97130 35903 ft 483 kts 241°
2026-05-08 01:43 -25.98577 -166.02948 35903 ft 483 kts 241°
2026-05-08 01:44 -26.02774 -166.08763 35897 ft 483 kts 241°
2026-05-08 01:44 -26.06948 -166.14552 35926 ft 483 kts 241°
2026-05-08 01:45 -26.11146 -166.20383 35900 ft 482 kts 241°
2026-05-08 01:45 -26.15341 -166.26217 35892 ft 482 kts 241°
2026-05-08 01:46 -26.19532 -166.32053 35892 ft 482 kts 241°
2026-05-08 01:46 -26.23692 -166.37854 35892 ft 482 kts 241°
2026-05-08 01:47 -26.27876 -166.43695 35889 ft 483 kts 241°
2026-05-08 01:47 -26.32062 -166.49547 35889 ft 483 kts 241°
2026-05-08 01:48 -26.38332 -166.58326 35887 ft 482 kts 241°
2026-05-08 01:48 -26.42484 -166.64147 35887 ft 482 kts 241°
2026-05-08 01:49 -26.46656 -166.70006 35879 ft 482 kts 241°
2026-05-08 01:49 -26.50826 -166.75869 35872 ft 482 kts 241°
2026-05-08 01:50 -26.54992 -166.81734 35870 ft 482 kts 241°
2026-05-08 01:50 -26.59157 -166.87605 35896 ft 483 kts 240°
2026-05-08 01:51 -26.63300 -166.93455 35870 ft 484 kts 240°
2026-05-08 01:51 -26.67472 -166.99352 35859 ft 484 kts 240°
2026-05-08 01:52 -26.71647 -167.05256 35857 ft 481 kts 240°
2026-05-08 01:52 -26.75761 -167.11075 35856 ft 475 kts 240°
2026-05-08 01:53 -26.79819 -167.16837 35856 ft 474 kts 240°
2026-05-08 01:53 -26.83899 -167.22640 35857 ft 474 kts 240°
2026-05-08 01:54 -26.87981 -167.28453 35855 ft 475 kts 240°
2026-05-08 01:54 -26.92069 -167.34276 35844 ft 476 kts 239°
2026-05-08 01:55 -26.96133 -167.40071 35834 ft 476 kts 239°
2026-05-08 01:55 -27.00223 -167.45912 35849 ft 476 kts 239°
2026-05-08 01:56 -27.04313 -167.51759 35844 ft 476 kts 239°
2026-05-08 01:56 -27.08397 -167.57607 35843 ft 476 kts 239°
2026-05-08 01:57 -27.12476 -167.63459 35842 ft 476 kts 239°
2026-05-08 01:57 -27.16523 -167.69268 35829 ft 476 kts 239°
2026-05-08 01:58 -27.20599 -167.75128 35831 ft 476 kts 239°
2026-05-08 01:58 -27.24669 -167.80986 35833 ft 476 kts 239°
2026-05-08 01:59 -27.28735 -167.86848 35824 ft 476 kts 239°
2026-05-08 01:59 -27.32802 -167.92717 35826 ft 475 kts 239°
2026-05-08 02:00 -27.36835 -167.98546 35827 ft 476 kts 238°
2026-05-08 02:00 -27.40899 -168.04428 35822 ft 476 kts 238°
2026-05-08 02:01 -27.44959 -168.10313 35816 ft 476 kts 238°
2026-05-08 02:01 -27.49018 -168.16203 35808 ft 476 kts 238°
2026-05-08 02:02 -27.53046 -168.22056 35808 ft 476 kts 238°
2026-05-08 02:02 -27.57098 -168.27952 35812 ft 476 kts 238°
2026-05-08 02:03 -27.61148 -168.33853 35804 ft 476 kts 238°
2026-05-08 02:03 -27.65207 -168.39775 35796 ft 477 kts 238°
2026-05-08 02:04 -27.69232 -168.45655 35797 ft 477 kts 238°
2026-05-08 02:04 -27.73280 -168.51577 35799 ft 476 kts 238°
2026-05-08 02:05 -27.77326 -168.57505 35799 ft 477 kts 238°
2026-05-08 02:05 -27.81347 -168.63403 35799 ft 477 kts 238°
2026-05-08 02:06 -27.85387 -168.69340 35807 ft 477 kts 236°
2026-05-08 02:06 -27.89421 -168.75275 35793 ft 476 kts 236°
2026-05-08 02:07 -27.93450 -168.81207 35793 ft 475 kts 236°
2026-05-08 02:07 -27.97474 -168.87142 35785 ft 475 kts 236°
2026-05-08 02:08 -28.01463 -168.93035 35788 ft 475 kts 236°
2026-05-08 02:08 -28.05467 -168.98958 35782 ft 475 kts 236°
2026-05-08 02:09 -28.09472 -169.04891 35780 ft 475 kts 236°
2026-05-08 02:09 -28.13442 -169.10776 35789 ft 474 kts 235°
2026-05-08 02:10 -28.17440 -169.16714 35778 ft 474 kts 236°
2026-05-08 02:10 -28.21444 -169.22673 35778 ft 475 kts 235°
2026-05-08 02:11 -28.25440 -169.28624 35776 ft 474 kts 235°
2026-05-08 02:11 -28.29413 -169.34551 35777 ft 472 kts 235°
2026-05-08 02:12 -28.33385 -169.40480 35778 ft 472 kts 236°
2026-05-08 02:12 -28.37323 -169.46372 35776 ft 474 kts 236°
2026-05-08 02:13 -28.41319 -169.52362 35778 ft 476 kts 235°
2026-05-08 02:13 -28.45318 -169.58354 35767 ft 475 kts 234°
2026-05-08 02:14 -28.49302 -169.64338 35768 ft 474 kts 235°
2026-05-08 02:14 -28.53277 -169.70312 35777 ft 475 kts 235°
2026-05-08 02:15 -28.57230 -169.76271 35766 ft 475 kts 236°
2026-05-08 02:15 -28.61214 -169.82281 35768 ft 477 kts 236°
2026-05-08 02:16 -28.65208 -169.88318 35768 ft 479 kts 236°
2026-05-08 02:16 -28.69204 -169.94366 35771 ft 476 kts 235°
2026-05-08 02:17 -28.73170 -170.00364 35766 ft 478 kts 235°
2026-05-08 02:17 -28.77165 -170.06427 35767 ft 479 kts 236°
2026-05-08 02:18 -28.81174 -170.12517 35771 ft 480 kts 235°
2026-05-08 02:18 -28.85173 -170.18603 35770 ft 479 kts 235°
2026-05-08 02:19 -28.89145 -170.24659 35760 ft 480 kts 235°
2026-05-08 02:19 -28.93131 -170.30727 35775 ft 477 kts 236°
2026-05-08 02:20 -28.97091 -170.36777 35768 ft 475 kts 237°
2026-05-08 02:20 -29.01057 -170.42849 35767 ft 477 kts 237°
2026-05-08 02:21 -29.05014 -170.48920 35769 ft 476 kts 237°
2026-05-08 02:21 -29.08937 -170.54947 35772 ft 474 kts 235°
2026-05-08 02:22 -29.12874 -170.60984 35775 ft 474 kts 236°
2026-05-08 02:22 -29.16809 -170.67044 35778 ft 474 kts 235°
2026-05-08 02:23 -29.20748 -170.73112 35773 ft 476 kts 237°
2026-05-08 02:23 -29.24650 -170.79141 35762 ft 470 kts 236°
2026-05-08 02:24 -29.28524 -170.85124 35770 ft 466 kts 235°
2026-05-08 02:24 -29.32379 -170.91092 35784 ft 466 kts 236°
2026-05-08 02:25 -29.36232 -170.97067 35771 ft 465 kts 235°
2026-05-08 02:25 -29.40067 -171.03019 35775 ft 464 kts 236°
2026-05-08 02:26 -29.43872 -171.08940 35778 ft 464 kts 235°
2026-05-08 02:26 -29.47710 -171.14914 35778 ft 464 kts 235°
2026-05-08 02:27 -29.51537 -171.20886 35776 ft 465 kts 235°
2026-05-08 02:27 -29.55369 -171.26863 35782 ft 463 kts 236°
2026-05-08 02:28 -29.59111 -171.32714 35784 ft 454 kts 235°
2026-05-08 02:28 -29.62837 -171.38546 35782 ft 450 kts 236°
2026-05-08 02:29 -29.66533 -171.44349 35779 ft 451 kts 235°
2026-05-08 02:29 -29.70248 -171.50181 35793 ft 452 kts 235°
2026-05-08 02:30 -29.73963 -171.56030 35795 ft 454 kts 235°
2026-05-08 02:30 -29.77662 -171.61851 35791 ft 453 kts 235°
2026-05-08 02:31 -29.81369 -171.67699 35806 ft 453 kts 236°
2026-05-08 02:31 -29.85071 -171.73542 35803 ft 450 kts 236°
2026-05-08 02:32 -29.88734 -171.79343 35798 ft 446 kts 237°
2026-05-08 02:32 -29.92368 -171.85098 35811 ft 447 kts 236°
2026-05-08 02:33 -29.96027 -171.90905 35808 ft 450 kts 236°
2026-05-08 02:33 -29.99714 -171.96761 35810 ft 450 kts 236°
2026-05-08 02:34 -30.03374 -172.02576 35812 ft 447 kts 237°
2026-05-08 02:34 -30.07032 -172.08397 35829 ft 446 kts 237°
2026-05-08 02:35 -30.10633 -172.14150 35825 ft 446 kts 237°
2026-05-08 02:35 -30.14269 -172.19962 35831 ft 448 kts 236°
2026-05-08 02:36 -30.17908 -172.25788 35839 ft 447 kts 237°
2026-05-08 02:36 -30.21545 -172.31623 35836 ft 448 kts 236°
2026-05-08 02:37 -30.25163 -172.37411 35827 ft 444 kts 237°
2026-05-08 02:37 -30.28771 -172.43216 35839 ft 446 kts 238°
2026-05-08 02:38 -30.32385 -172.49026 35847 ft 442 kts 238°
2026-05-08 02:38 -30.35365 -172.53839 35846 ft 444 kts 237°
2026-05-08 02:39 -30.39592 -172.60661 35850 ft 446 kts 238°
2026-05-08 02:39 -30.43187 -172.66481 35867 ft 449 kts 238°
2026-05-08 02:40 -30.46811 -172.72346 35869 ft 448 kts 238°
2026-05-08 02:40 -30.49820 -172.77216 35862 ft 445 kts 238°
2026-05-08 02:41 -30.54021 -172.84036 35866 ft 448 kts 238°
2026-05-08 02:41 -30.57625 -172.89890 35882 ft 445 kts 238°
2026-05-08 02:42 -30.60594 -172.94737 35886 ft 448 kts 237°
2026-05-08 02:42 -30.64217 -173.00633 35883 ft 448 kts 238°
2026-05-08 02:43 -30.67832 -173.06548 35887 ft 451 kts 237°
2026-05-08 02:43 -30.72068 -173.13458 35883 ft 450 kts 238°
2026-05-08 02:44 -30.75063 -173.18371 35893 ft 449 kts 237°
2026-05-08 02:44 -30.78691 -173.24313 35907 ft 450 kts 238°
2026-05-08 02:45 -30.82294 -173.30233 35904 ft 448 kts 238°
2026-05-08 02:45 -30.85892 -173.36159 35902 ft 449 kts 238°
2026-05-08 02:46 -30.89471 -173.42053 35900 ft 449 kts 238°
2026-05-08 02:46 -30.93079 -173.48013 35934 ft 451 kts 237°
2026-05-08 02:47 -30.96705 -173.53988 35922 ft 450 kts 239°
2026-05-08 02:47 -31.00305 -173.59955 35917 ft 453 kts 237°
2026-05-08 02:48 -31.03935 -173.65965 35937 ft 452 kts 239°
2026-05-08 02:48 -31.07518 -173.71918 35956 ft 452 kts 239°
2026-05-08 02:49 -31.11137 -173.77943 35946 ft 454 kts 238°
2026-05-08 02:49 -31.14746 -173.83961 35947 ft 453 kts 237°
2026-05-08 02:50 -31.18370 -173.89993 35949 ft 453 kts 238°
2026-05-08 02:50 -31.21988 -173.96013 35955 ft 452 kts 239°
2026-05-08 02:51 -31.25561 -174.01987 35960 ft 452 kts 239°
2026-05-08 02:51 -31.29150 -174.08001 35969 ft 450 kts 239°
2026-05-08 02:52 -31.32712 -174.14000 35972 ft 449 kts 239°
2026-05-08 02:52 -31.36274 -174.19987 35974 ft 452 kts 239°
2026-05-08 02:53 -31.39827 -174.25971 35983 ft 452 kts 237°
2026-05-08 02:53 -31.43425 -174.32037 35983 ft 454 kts 239°
2026-05-08 02:54 -31.47024 -174.38086 35984 ft 451 kts 239°
2026-05-08 02:54 -31.50587 -174.44117 35988 ft 452 kts 239°
2026-05-08 02:55 -31.55856 -174.53039 35994 ft 450 kts 239°
2026-05-08 02:56 -31.59431 -174.59129 35992 ft 451 kts 238°
2026-05-08 02:56 -31.63000 -174.65181 35990 ft 450 kts 238°
2026-05-08 02:57 -31.66552 -174.71241 36009 ft 451 kts 238°
2026-05-08 02:57 -31.70093 -174.77280 36018 ft 452 kts 239°
2026-05-08 02:58 -31.73643 -174.83335 36007 ft 448 kts 238°
2026-05-08 02:58 -31.77175 -174.89377 36019 ft 449 kts 239°
2026-05-08 02:59 -31.80696 -174.95404 36017 ft 446 kts 239°
2026-05-08 02:59 -31.84207 -175.01445 36113 ft 450 kts 238°
2026-05-08 03:00 -31.87740 -175.07516 36384 ft 453 kts 239°
2026-05-08 03:00 -31.89517 -175.10576 36554 ft 454 kts 238°
2026-05-08 03:00 -31.91308 -175.13668 36577 ft 458 kts 238°
2026-05-08 03:00 -31.93106 -175.16769 36800 ft 458 kts 238°
2026-05-08 03:01 -31.94894 -175.19846 37099 ft 456 kts 238°
2026-05-08 03:01 -31.96684 -175.22928 37313 ft 455 kts 239°
2026-05-08 03:01 -31.98464 -175.25990 37694 ft 450 kts 239°
2026-05-08 03:02 -32.02012 -175.32137 37830 ft 456 kts 239°
2026-05-08 03:02 -32.03771 -175.35185 38019 ft 456 kts 239°
2026-05-08 03:02 -32.05553 -175.38270 38034 ft 454 kts 239°
2026-05-08 03:03 -32.09075 -175.44385 38037 ft 449 kts 238°
2026-05-08 03:03 -32.12583 -175.50485 38045 ft 449 kts 238°
2026-05-08 03:04 -32.16079 -175.56570 38040 ft 448 kts 238°
2026-05-08 03:04 -32.19556 -175.62641 38046 ft 451 kts 238°
2026-05-08 03:05 -32.23065 -175.68761 38051 ft 450 kts 238°
2026-05-08 03:05 -32.26556 -175.74867 38052 ft 448 kts 238°
2026-05-08 03:06 -32.30042 -175.80974 38052 ft 449 kts 238°
2026-05-08 03:06 -32.33510 -175.87062 38059 ft 450 kts 238°
2026-05-08 03:07 -32.36997 -175.93196 38058 ft 450 kts 238°
2026-05-08 03:07 -32.40497 -175.99352 38059 ft 450 kts 238°
2026-05-08 03:08 -32.43981 -176.05503 38061 ft 451 kts 238°
2026-05-08 03:08 -32.47456 -176.11644 38058 ft 452 kts 238°
2026-05-08 03:09 -32.50950 -176.17816 38062 ft 450 kts 238°
2026-05-08 03:09 -32.54422 -176.23973 38056 ft 448 kts 238°
2026-05-08 03:10 -32.57876 -176.30100 38069 ft 446 kts 238°
2026-05-08 03:10 -32.61323 -176.36231 38063 ft 446 kts 238°
2026-05-08 03:11 -32.64746 -176.42330 38068 ft 448 kts 238°
2026-05-08 03:11 -32.68195 -176.48480 38072 ft 447 kts 238°
2026-05-08 03:12 -32.71638 -176.54634 38074 ft 448 kts 238°